| time (UTC) | temp F | wind direction | speed knots | gust knots | rain 1hr in | rain 24hr in | rain mn in | humidity % | barometer mb |
| 20260507091604 | 37 | 334 | 0.0 | 0.0 | 0.00 | 0.35 | 0.00 | 88 | 1009.8 |
| 20260507091104 | 37 | 334 | 0.0 | 0.0 | 0.00 | 0.35 | 0.00 | 88 | 1009.8 |
| 20260507090604 | 37 | 334 | 0.0 | 0.0 | 0.00 | 0.36 | 0.00 | 88 | 1009.8 |
| 20260507090105 | 37 | 334 | 0.0 | 0.0 | 0.00 | 0.36 | 0.00 | 88 | 1009.8 |
| 20260507085603 | 37 | 334 | 0.0 | 0.9 | 0.00 | 0.36 | 0.00 | 88 | 1009.8 |
| 20260507085104 | 38 | 334 | 0.0 | 0.9 | 0.00 | 0.36 | 0.00 | 88 | 1009.8 |
| 20260507084604 | 38 | 334 | 0.0 | 2.6 | 0.00 | 0.37 | 0.00 | 88 | 1009.8 |
| 20260507083604 | 38 | 334 | 0.0 | 2.6 | 0.00 | 0.37 | 0.00 | 88 | 1009.8 |
| 20260507083104 | 38 | 334 | 0.9 | 2.6 | 0.00 | 0.37 | 0.00 | 88 | 1009.8 |
| 20260507082604 | 38 | 333 | 0.9 | 2.6 | 0.00 | 0.37 | 0.00 | 88 | 1009.8 |
| 20260507082103 | 39 | 333 | 0.0 | 2.6 | 0.00 | 0.37 | 0.00 | 88 | 1009.8 |
| 20260507081604 | 39 | 333 | 0.0 | 2.6 | 0.00 | 0.37 | 0.00 | 88 | 1009.8 |
| 20260507081104 | 39 | 333 | 0.9 | 4.3 | 0.00 | 0.37 | 0.00 | 88 | 1009.8 |
| 20260507080604 | 39 | 333 | 0.9 | 4.3 | 0.00 | 0.37 | 0.00 | 88 | 1009.8 |
| 20260507080103 | 39 | 332 | 1.7 | 4.3 | 0.00 | 0.37 | 0.00 | 88 | 1009.8 |
| 20260507075103 | 39 | 329 | 0.9 | 5.2 | 0.00 | 0.37 | 0.00 | 88 | 1009.8 |
| 20260507074603 | 39 | 329 | 0.0 | 7.0 | 0.00 | 0.37 | 0.00 | 89 | 1009.8 |
| 20260507074103 | 39 | 326 | 1.7 | 7.0 | 0.00 | 0.37 | 0.00 | 88 | 1009.8 |
| 20260507073603 | 39 | 318 | 1.7 | 5.2 | 0.00 | 0.37 | 0.00 | 89 | 1009.8 |
| 20260507073104 | 39 | 338 | 1.7 | 5.2 | 0.00 | 0.37 | 0.00 | 89 | 1009.8 |
| 20260507072604 | 39 | 343 | 0.9 | 5.2 | 0.00 | 0.37 | 0.00 | 89 | 1009.8 |
| 20260507072103 | 39 | 342 | 2.6 | 7.0 | 0.00 | 0.37 | 0.00 | 89 | 1009.8 |
| 20260507071604 | 40 | 338 | 1.7 | 7.0 | 0.00 | 0.37 | 0.00 | 89 | 1009.8 |
| 20260507071104 | 40 | 336 | 1.7 | 4.3 | 0.00 | 0.37 | 0.00 | 90 | 1009.8 |
| 20260507070603 | 40 | 338 | 1.7 | 5.2 | 0.00 | 0.37 | 0.00 | 90 | 1009.8 |
| 20260507065604 | 40 | 334 | 0.9 | 5.2 | 0.00 | 0.37 | 0.00 | 90 | 1009.8 |
| 20260507065103 | 40 | 334 | 1.7 | 7.0 | 0.00 | 0.37 | 0.00 | 90 | 1009.8 |
| 20260507064604 | 40 | 358 | 4.3 | 7.0 | 0.00 | 0.37 | 0.00 | 91 | 1009.8 |
| 20260507063604 | 40 | 318 | 0.9 | 8.7 | 0.00 | 0.37 | 0.00 | 91 | 1009.8 |
| 20260507063104 | 40 | 319 | 1.7 | 8.7 | 0.00 | 0.37 | 0.00 | 91 | 1009.8 |
| 20260507061603 | 40 | 334 | 1.7 | 7.0 | 0.00 | 0.37 | 0.00 | 92 | 1009.8 |
| 20260507061104 | 40 | 315 | 1.7 | 7.0 | 0.00 | 0.37 | 0.00 | 92 | 1009.8 |
| 20260507060604 | 41 | 343 | 1.7 | 7.0 | 0.00 | 0.37 | 0.00 | 92 | 1009.8 |
| 20260507055603 | 41 | 327 | 4.3 | 8.7 | 0.00 | 0.37 | 0.00 | 92 | 1009.8 |
| 20260507055104 | 41 | 337 | 5.2 | 8.7 | 0.00 | 0.37 | 0.00 | 93 | 1009.8 |
| 20260507054604 | 41 | 340 | 1.7 | 8.7 | 0.00 | 0.37 | 0.00 | 93 | 1009.8 |
| 20260507054103 | 41 | 12 | 2.6 | 8.7 | 0.00 | 0.37 | 0.00 | 93 | 1009.8 |
| 20260507053604 | 42 | 316 | 2.6 | 7.8 | 0.00 | 0.37 | 0.00 | 93 | 1009.8 |
| 20260507053104 | 42 | 329 | 2.6 | 7.0 | 0.00 | 0.37 | 0.00 | 93 | 1009.8 |
| 20260507052603 | 42 | 346 | 1.7 | 7.0 | 0.00 | 0.37 | 0.00 | 93 | 1009.8 |
| 20260507052103 | 42 | 357 | 1.7 | 12.2 | 0.00 | 0.37 | 0.00 | 94 | 1009.8 |
| 20260507051604 | 42 | 319 | 4.3 | 12.2 | 0.00 | 0.37 | 0.00 | 93 | 1009.8 |
| 20260507051104 | 43 | 346 | 5.2 | 10.4 | 0.00 | 0.37 | 0.00 | 94 | 1009.8 |
| 20260507050604 | 43 | 13 | 3.5 | 10.4 | 0.00 | 0.37 | 0.00 | 94 | 1009.8 |
| 20260507050103 | 43 | 298 | 4.3 | 10.4 | 0.00 | 0.37 | 0.00 | 94 | 1009.8 |
| 20260507045604 | 43 | 334 | 3.5 | 10.4 | 0.00 | 0.37 | 0.00 | 94 | 1009.8 |
| 20260507045104 | 43 | 11 | 4.3 | 7.8 | 0.00 | 0.37 | 0.00 | 94 | 1009.8 |
| 20260507044603 | 43 | 320 | 4.3 | 10.4 | 0.00 | 0.37 | 0.00 | 94 | 1009.8 |
| 20260507042603 | 44 | 298 | 1.7 | 7.8 | 0.00 | 0.37 | 0.00 | 94 | 1009.8 |
| 20260507042104 | 44 | 285 | 0.9 | 7.0 | 0.00 | 0.37 | 0.00 | 94 | 1009.8 |
| 20260507040103 | 44 | 297 | 0.9 | 2.6 | 0.00 | 0.37 | 0.00 | 94 | 1009.8 |
| 20260507035604 | 44 | 307 | 0.9 | 2.6 | 0.00 | 0.37 | 0.37 | 94 | 1009.8 |
| 20260507035104 | 44 | 276 | 0.9 | 2.6 | 0.00 | 0.37 | 0.37 | 94 | 1009.8 |
| 20260507034604 | 44 | 275 | 0.9 | 2.6 | 0.00 | 0.37 | 0.37 | 94 | 1009.8 |
| 20260507033604 | 44 | 275 | 0.0 | 1.7 | 0.00 | 0.37 | 0.37 | 94 | 1009.8 |
| 20260507033104 | 44 | 275 | 0.9 | 1.7 | 0.00 | 0.37 | 0.37 | 94 | 1010.1 |
| 20260507032605 | 44 | 275 | 0.0 | 1.7 | 0.01 | 0.37 | 0.37 | 94 | 1010.1 |
| 20260507032105 | 45 | 275 | 0.0 | 1.7 | 0.01 | 0.37 | 0.37 | 94 | 1010.1 |
| 20260507031604 | 45 | 275 | 0.0 | 5.2 | 0.01 | 0.37 | 0.37 | 94 | 1010.1 |
| 20260507031105 | 45 | 275 | 0.9 | 5.2 | 0.01 | 0.37 | 0.37 | 94 | 1010.1 |
| 20260507030605 | 45 | 290 | 1.7 | 5.2 | 0.01 | 0.37 | 0.37 | 94 | 1010.1 |
| 20260507030105 | 45 | 272 | 0.9 | 6.1 | 0.01 | 0.37 | 0.37 | 94 | 1010.1 |
| 20260507025605 | 45 | 284 | 1.7 | 6.1 | 0.01 | 0.37 | 0.37 | 94 | 1010.1 |
| 20260507025105 | 44 | 265 | 0.9 | 5.2 | 0.01 | 0.37 | 0.37 | 94 | 1010.5 |
| 20260507024605 | 44 | 260 | 0.9 | 1.7 | 0.01 | 0.37 | 0.37 | 94 | 1010.5 |
| 20260507024105 | 44 | 263 | 0.0 | 2.6 | 0.01 | 0.37 | 0.37 | 94 | 1010.5 |
| 20260507023605 | 44 | 263 | 0.9 | 5.2 | 0.01 | 0.37 | 0.37 | 94 | 1010.5 |
| 20260507023104 | 44 | 263 | 1.7 | 5.2 | 0.01 | 0.37 | 0.37 | 94 | 1010.5 |
| 20260507022605 | 44 | 321 | 0.0 | 1.7 | 0.00 | 0.36 | 0.36 | 94 | 1010.5 |
| 20260507022105 | 44 | 321 | 0.0 | 0.9 | 0.00 | 0.36 | 0.36 | 94 | 1010.5 |
| 20260507021605 | 44 | 321 | 0.0 | 0.9 | 0.00 | 0.36 | 0.36 | 94 | 1010.5 |
| 20260507021105 | 44 | 321 | 0.0 | 0.0 | 0.00 | 0.36 | 0.36 | 94 | 1010.5 |
| 20260507020605 | 44 | 321 | 0.0 | 0.9 | 0.00 | 0.36 | 0.36 | 94 | 1010.5 |
| 20260507020105 | 44 | 321 | 0.0 | 0.9 | 0.00 | 0.36 | 0.36 | 94 | 1010.5 |
| 20260507015605 | 44 | 321 | 0.0 | 1.7 | 0.00 | 0.36 | 0.36 | 94 | 1010.5 |
| 20260507015105 | 43 | 321 | 0.0 | 1.7 | 0.00 | 0.36 | 0.36 | 94 | 1010.5 |
| 20260507014105 | 43 | 323 | 0.0 | 0.9 | 0.00 | 0.36 | 0.36 | 94 | 1010.5 |
| 20260507012604 | 44 | 323 | 0.9 | 2.6 | 0.00 | 0.36 | 0.36 | 93 | 1010.5 |
| 20260507012105 | 44 | 323 | 0.0 | 0.0 | 0.00 | 0.36 | 0.36 | 94 | 1010.5 |
| 20260507011605 | 44 | 323 | 0.0 | 0.0 | 0.00 | 0.36 | 0.36 | 94 | 1010.5 |
| 20260507011105 | 44 | 323 | 0.0 | 0.0 | 0.00 | 0.36 | 0.36 | 94 | 1010.5 |
| 20260507010104 | 44 | 323 | 0.0 | 0.9 | 0.00 | 0.36 | 0.36 | 94 | 1009.7 |
| 20260507005605 | 44 | 323 | 0.0 | 0.9 | 0.00 | 0.36 | 0.36 | 94 | 1009.7 |
| 20260507005105 | 44 | 323 | 0.0 | 0.9 | 0.00 | 0.36 | 0.36 | 94 | 1009.7 |
| 20260507004605 | 44 | 323 | 0.0 | 0.9 | 0.00 | 0.36 | 0.36 | 94 | 1009.7 |
| 20260507004105 | 44 | 323 | 0.0 | 0.0 | 0.00 | 0.36 | 0.36 | 94 | 1009.7 |
| 20260507003105 | 45 | 323 | 0.0 | 0.9 | 0.00 | 0.36 | 0.36 | 94 | 1009.7 |
| 20260507002604 | 45 | 323 | 0.0 | 0.9 | 0.00 | 0.36 | 0.36 | 94 | 1009.7 |
| 20260507002105 | 45 | 323 | 0.0 | 1.7 | 0.00 | 0.36 | 0.36 | 94 | 1009.7 |
| 20260507001604 | 45 | 323 | 0.9 | 1.7 | 0.00 | 0.36 | 0.36 | 94 | 1009.7 |
| 20260507001105 | 45 | 323 | 0.0 | 0.9 | 0.00 | 0.36 | 0.36 | 94 | 1009.7 |
| 20260507000605 | 45 | 323 | 0.0 | 0.9 | 0.00 | 0.36 | 0.36 | 94 | 1009.7 |
| 20260507000104 | 45 | 323 | 0.0 | 0.9 | 0.00 | 0.36 | 0.36 | 94 | 1009.7 |
| 20260506235605 | 45 | 323 | 0.0 | 0.0 | 0.00 | 0.36 | 0.36 | 94 | 1009.7 |
| 20260506235105 | 45 | 323 | 0.0 | 0.0 | 0.00 | 0.36 | 0.36 | 94 | 1009.6 |
| 20260506234605 | 45 | 323 | 0.0 | 0.9 | 0.00 | 0.36 | 0.36 | 94 | 1009.6 |
| 20260506233605 | 45 | 323 | 0.0 | 1.7 | 0.00 | 0.36 | 0.36 | 94 | 1009.2 |
| 20260506233105 | 45 | 323 | 0.0 | 2.6 | 0.00 | 0.36 | 0.36 | 94 | 1009.2 |
| 20260506232605 | 45 | 323 | 1.7 | 2.6 | 0.00 | 0.36 | 0.36 | 94 | 1009.2 |
| 20260506232104 | 45 | 323 | 0.9 | 2.6 | 0.00 | 0.36 | 0.36 | 94 | 1009.2 |
| 20260506231604 | 45 | 323 | 0.0 | 2.6 | 0.00 | 0.36 | 0.36 | 94 | 1009.2 |
| 20260506231104 | 45 | 324 | 0.0 | 1.7 | 0.00 | 0.36 | 0.36 | 94 | 1009.2 |
| 20260506230604 | 45 | 324 | 0.0 | 2.6 | 0.00 | 0.36 | 0.36 | 94 | 1007.7 |
| 20260506230104 | 45 | 324 | 0.0 | 4.3 | 0.00 | 0.36 | 0.36 | 94 | 1007.7 |
| 20260506225605 | 45 | 324 | 0.9 | 4.3 | 0.00 | 0.36 | 0.36 | 94 | 1007.7 |
| 20260506224605 | 45 | 327 | 1.7 | 4.3 | 0.00 | 0.36 | 0.36 | 94 | 1007.7 |
| 20260506224105 | 45 | 333 | 0.0 | 4.3 | 0.00 | 0.36 | 0.36 | 94 | 1007.7 |
| 20260506223605 | 45 | 333 | 1.7 | 4.3 | 0.00 | 0.36 | 0.36 | 94 | 1007.7 |
| 20260506223105 | 45 | 336 | 0.9 | 7.0 | 0.00 | 0.36 | 0.36 | 94 | 1007.7 |
| 20260506222605 | 45 | 333 | 1.7 | 8.7 | 0.00 | 0.36 | 0.36 | 94 | 1007.7 |
| 20260506222105 | 45 | 345 | 4.3 | 8.7 | 0.00 | 0.36 | 0.36 | 94 | 1007.7 |
| 20260506221104 | 45 | 337 | 2.6 | 8.7 | 0.00 | 0.36 | 0.36 | 94 | 1007.7 |
| 20260506220605 | 45 | 326 | 2.6 | 8.7 | 0.00 | 0.36 | 0.36 | 94 | 1007.7 |
| 20260506215604 | 45 | 353 | 1.7 | 8.7 | 0.00 | 0.36 | 0.36 | 94 | 1007.7 |
| 20260506215105 | 45 | 328 | 2.6 | 10.4 | 0.00 | 0.41 | 0.36 | 94 | 1007.7 |
| 20260506214605 | 45 | 321 | 5.2 | 10.4 | 0.00 | 0.53 | 0.36 | 95 | 1007.7 |
| 20260506214105 | 45 | 342 | 4.3 | 10.4 | 0.00 | 0.53 | 0.36 | 95 | 1007.7 |
| 20260506213605 | 45 | 347 | 2.6 | 10.4 | 0.00 | 0.53 | 0.36 | 95 | 1007.7 |
| 20260506213104 | 45 | 339 | 3.5 | 10.4 | 0.00 | 0.53 | 0.36 | 95 | 1007.7 |
| 20260506212605 | 45 | 344 | 4.3 | 8.7 | 0.00 | 0.53 | 0.36 | 95 | 1007.7 |
| 20260506212105 | 45 | 320 | 3.5 | 8.7 | 0.00 | 0.53 | 0.36 | 95 | 1007.7 |
| 20260506211605 | 45 | 343 | 3.5 | 8.7 | 0.00 | 0.53 | 0.36 | 95 | 1007.7 |
| 20260506210106 | 45 | 344 | 4.3 | 12.2 | 0.00 | 0.53 | 0.36 | 95 | 1007.7 |
| 20260506205604 | 45 | 345 | 4.3 | 11.3 | 0.00 | 0.53 | 0.36 | 95 | 1007.7 |
| 20260506205105 | 45 | 323 | 3.5 | 11.3 | 0.00 | 0.53 | 0.36 | 95 | 1007.7 |
| 20260506204605 | 45 | 320 | 4.3 | 8.7 | 0.00 | 0.53 | 0.36 | 95 | 1007.7 |
| 20260506204104 | 45 | 331 | 3.5 | 11.3 | 0.00 | 0.53 | 0.36 | 95 | 1007.7 |
| 20260506203605 | 45 | 348 | 7.0 | 11.3 | 0.00 | 0.53 | 0.36 | 95 | 1007.7 |
| 20260506203105 | 45 | 338 | 1.7 | 13.0 | 0.00 | 0.53 | 0.36 | 95 | 1007.7 |
| 20260506202105 | 46 | 333 | 2.6 | 10.4 | 0.00 | 0.53 | 0.36 | 95 | 1007.7 |
| 20260506201105 | 46 | 320 | 2.6 | 7.0 | 0.00 | 0.53 | 0.36 | 95 | 1007.2 |
| 20260506200605 | 46 | 334 | 2.6 | 7.0 | 0.00 | 0.53 | 0.36 | 95 | 1007.2 |
| 20260506195605 | 46 | 318 | 2.6 | 10.4 | 0.00 | 0.53 | 0.36 | 95 | 1007.2 |
| 20260506195105 | 46 | 336 | 2.6 | 10.4 | 0.00 | 0.53 | 0.36 | 95 | 1007.2 |
| 20260506194604 | 46 | 344 | 6.1 | 13.0 | 0.00 | 0.53 | 0.36 | 95 | 1007.2 |
| 20260506194105 | 46 | 358 | 5.2 | 13.0 | 0.00 | 0.53 | 0.36 | 95 | 1007.2 |
| 20260506193605 | 46 | 347 | 4.3 | 10.4 | 0.00 | 0.53 | 0.36 | 96 | 1007.2 |
| 20260506193104 | 45 | 4 | 2.6 | 10.4 | 0.00 | 0.53 | 0.36 | 95 | 1007.2 |
| 20260506192605 | 45 | 353 | 2.6 | 7.8 | 0.00 | 0.53 | 0.36 | 95 | 1007.2 |
| 20260506191605 | 45 | 357 | 3.5 | 10.4 | 0.00 | 0.54 | 0.36 | 95 | 1007.2 |
| 20260506191105 | 45 | 351 | 5.2 | 12.2 | 0.00 | 0.55 | 0.36 | 95 | 1007.2 |
| 20260506190605 | 45 | 340 | 1.7 | 12.2 | 0.01 | 0.56 | 0.36 | 95 | 1007.2 |
| 20260506185605 | 45 | 349 | 4.3 | 11.3 | 0.01 | 0.61 | 0.36 | 95 | 1007.2 |
| 20260506185105 | 45 | 329 | 3.5 | 11.3 | 0.01 | 0.63 | 0.36 | 95 | 1007.2 |
| 20260506184605 | 46 | 333 | 2.6 | 10.4 | 0.01 | 0.63 | 0.36 | 95 | 1007.2 |
| 20260506184105 | 46 | 333 | 1.7 | 10.4 | 0.01 | 0.63 | 0.36 | 95 | 1006.3 |
| 20260506183105 | 46 | 333 | 4.3 | 8.7 | 0.01 | 0.63 | 0.36 | 95 | 1006.3 |
| 20260506182605 | 46 | 320 | 2.6 | 7.8 | 0.01 | 0.63 | 0.36 | 95 | 1006.3 |
| 20260506182105 | 46 | 321 | 1.7 | 7.0 | 0.01 | 0.63 | 0.36 | 95 | 1006.3 |
| 20260506181605 | 46 | 328 | 1.7 | 7.8 | 0.01 | 0.63 | 0.36 | 95 | 1006.3 |
| 20260506181104 | 46 | 345 | 0.9 | 7.8 | 0.01 | 0.63 | 0.36 | 95 | 1006.3 |
| 20260506180604 | 46 | 343 | 4.3 | 7.8 | 0.00 | 0.62 | 0.35 | 95 | 1006.3 |
| 20260506180105 | 46 | 339 | 2.6 | 7.0 | 0.00 | 0.62 | 0.35 | 95 | 1006.3 |
| 20260506175605 | 47 | 355 | 2.6 | 6.1 | 0.00 | 0.62 | 0.35 | 95 | 1006.3 |
| 20260506175105 | 46 | 340 | 1.7 | 6.1 | 0.00 | 0.62 | 0.35 | 95 | 1006.3 |
| 20260506174604 | 46 | 334 | 1.7 | 7.0 | 0.01 | 0.62 | 0.35 | 95 | 1006.3 |
| 20260506174104 | 46 | 331 | 1.7 | 7.8 | 0.01 | 0.62 | 0.35 | 95 | 1006.3 |
| 20260506173605 | 46 | 334 | 0.9 | 7.8 | 0.01 | 0.62 | 0.35 | 95 | 1006.1 |
| 20260506173105 | 46 | 0 | 2.6 | 7.8 | 0.01 | 0.62 | 0.35 | 95 | 1006.1 |
| 20260506172604 | 46 | 331 | 2.6 | 7.0 | 0.01 | 0.62 | 0.35 | 95 | 1006.1 |
| 20260506172105 | 46 | 350 | 3.5 | 7.8 | 0.01 | 0.62 | 0.35 | 95 | 1006.1 |
| 20260506171104 | 46 | 340 | 2.6 | 8.7 | 0.01 | 0.62 | 0.35 | 95 | 1006.1 |
| 20260506170105 | 46 | 349 | 4.3 | 10.4 | 0.01 | 0.62 | 0.35 | 95 | 1006.1 |
| 20260506165605 | 46 | 345 | 4.3 | 8.7 | 0.01 | 0.62 | 0.35 | 95 | 1006.1 |
| 20260506165104 | 46 | 348 | 2.6 | 7.8 | 0.01 | 0.62 | 0.35 | 95 | 1006.1 |
| 20260506164104 | 45 | 354 | 2.6 | 8.7 | 0.00 | 0.61 | 0.34 | 95 | 1006.0 |
| 20260506163105 | 45 | 3 | 2.6 | 7.0 | 0.00 | 0.61 | 0.34 | 95 | 1006.0 |
| 20260506162105 | 45 | 350 | 2.6 | 10.4 | 0.00 | 0.61 | 0.34 | 95 | 1005.7 |
| 20260506161105 | 45 | 11 | 4.3 | 10.4 | 0.01 | 0.61 | 0.34 | 95 | 1005.7 |
| 20260506160105 | 45 | 348 | 4.3 | 8.7 | 0.01 | 0.61 | 0.34 | 95 | 1005.7 |
| 20260506155605 | 45 | 335 | 1.7 | 8.7 | 0.01 | 0.61 | 0.34 | 95 | 1005.7 |
| 20260506155105 | 45 | 339 | 3.5 | 7.0 | 0.01 | 0.61 | 0.34 | 95 | 1005.7 |
| 20260506154605 | 45 | 351 | 3.5 | 8.7 | 0.02 | 0.61 | 0.34 | 95 | 1005.7 |
| 20260506154105 | 45 | 341 | 4.3 | 8.7 | 0.02 | 0.61 | 0.34 | 95 | 1005.7 |
| 20260506153604 | 46 | 7 | 4.3 | 7.8 | 0.02 | 0.61 | 0.34 | 95 | 1005.7 |
| 20260506153105 | 46 | 344 | 2.6 | 7.8 | 0.02 | 0.61 | 0.34 | 95 | 1005.7 |
| 20260506152605 | 46 | 343 | 3.5 | 7.0 | 0.02 | 0.61 | 0.34 | 95 | 1005.7 |
| 20260506151605 | 46 | 355 | 1.7 | 4.3 | 0.02 | 0.61 | 0.34 | 95 | 1005.7 |
| 20260506150604 | 46 | 328 | 2.6 | 7.8 | 0.01 | 0.60 | 0.33 | 95 | 1005.6 |
| 20260506150104 | 46 | 321 | 2.6 | 7.8 | 0.01 | 0.60 | 0.33 | 94 | 1005.6 |
| 20260506145105 | 46 | 344 | 5.2 | 7.8 | 0.01 | 0.60 | 0.33 | 95 | 1005.6 |
| 20260506144604 | 47 | 346 | 2.6 | 7.0 | 0.00 | 0.59 | 0.32 | 94 | 1005.6 |
| 20260506144105 | 47 | 334 | 2.6 | 5.2 | 0.01 | 0.59 | 0.32 | 95 | 1005.6 |
| 20260506143605 | 47 | 332 | 1.7 | 5.2 | 0.01 | 0.59 | 0.32 | 95 | 1005.6 |
| 20260506143104 | 47 | 341 | 2.6 | 5.2 | 0.01 | 0.59 | 0.32 | 95 | 1005.6 |
| 20260506142605 | 47 | 335 | 1.7 | 5.2 | 0.02 | 0.59 | 0.32 | 95 | 1005.6 |
| 20260506142105 | 47 | 344 | 2.6 | 7.0 | 0.02 | 0.59 | 0.32 | 94 | 1005.6 |
| 20260506141604 | 48 | 343 | 2.6 | 7.0 | 0.02 | 0.59 | 0.32 | 95 | 1005.6 |
| 20260506141104 | 48 | 345 | 1.7 | 4.3 | 0.02 | 0.59 | 0.32 | 95 | 1005.6 |
| 20260506140605 | 48 | 340 | 1.7 | 4.3 | 0.04 | 0.59 | 0.32 | 94 | 1005.6 |
| 20260506135605 | 48 | 349 | 2.6 | 4.3 | 0.06 | 0.59 | 0.32 | 95 | 1005.6 |
| 20260506134605 | 49 | 354 | 2.6 | 4.3 | 0.07 | 0.59 | 0.32 | 94 | 1005.6 |
| 20260506134104 | 49 | 355 | 1.7 | 2.6 | 0.07 | 0.58 | 0.31 | 94 | 1005.6 |
| 20260506133605 | 49 | 185 | 0.9 | 2.6 | 0.09 | 0.58 | 0.31 | 95 | 1005.6 |
| 20260506133105 | 50 | 184 | 0.9 | 1.7 | 0.11 | 0.58 | 0.31 | 94 | 1005.6 |
| 20260506132604 | 50 | 184 | 0.0 | 0.9 | 0.11 | 0.57 | 0.30 | 95 | 1005.6 |
| 20260506132104 | 50 | 184 | 0.0 | 0.9 | 0.12 | 0.57 | 0.30 | 94 | 1005.6 |
| 20260506131604 | 51 | 184 | 0.0 | 2.6 | 0.13 | 0.57 | 0.30 | 95 | 1005.6 |
| 20260506131104 | 51 | 184 | 0.0 | 2.6 | 0.14 | 0.57 | 0.30 | 94 | 1005.6 |
| 20260506130104 | 52 | 184 | 0.0 | 0.0 | 0.11 | 0.54 | 0.27 | 95 | 1005.6 |
| 20260506125604 | 52 | 184 | 0.0 | 0.0 | 0.11 | 0.53 | 0.26 | 95 | 1005.6 |
| 20260506125104 | 52 | 184 | 0.0 | 0.0 | 0.11 | 0.53 | 0.26 | 95 | 1005.6 |
| 20260506124605 | 53 | 184 | 0.0 | 0.9 | 0.11 | 0.52 | 0.25 | 95 | 1005.6 |
| 20260506124105 | 53 | 184 | 0.0 | 2.6 | 0.10 | 0.51 | 0.24 | 95 | 1005.6 |
| 20260506123605 | 53 | 184 | 0.0 | 2.6 | 0.08 | 0.49 | 0.22 | 95 | 1005.6 |
| 20260506123104 | 53 | 184 | 0.9 | 2.6 | 0.06 | 0.47 | 0.20 | 95 | 1005.6 |
| 20260506122604 | 53 | 184 | 0.9 | 1.7 | 0.06 | 0.46 | 0.19 | 95 | 1005.6 |
| 20260506122104 | 53 | 184 | 0.0 | 0.9 | 0.05 | 0.45 | 0.18 | 95 | 1005.6 |
| 20260506121605 | 53 | 184 | 0.0 | 1.7 | 0.04 | 0.44 | 0.17 | 95 | 1005.6 |
| 20260506121104 | 52 | 184 | 0.0 | 1.7 | 0.04 | 0.43 | 0.16 | 95 | 1005.6 |
| 20260506120605 | 52 | 184 | 0.0 | 2.6 | 0.04 | 0.43 | 0.16 | 95 | 1005.6 |
| 20260506120105 | 52 | 184 | 0.0 | 2.6 | 0.04 | 0.43 | 0.16 | 95 | 1005.6 |
| 20260506114605 | 51 | 135 | 0.9 | 2.6 | 0.05 | 0.42 | 0.14 | 95 | 1005.6 |
| 20260506114105 | 51 | 135 | 0.9 | 2.6 | 0.06 | 0.42 | 0.14 | 95 | 1005.6 |
| 20260506113605 | 51 | 135 | 0.0 | 2.6 | 0.07 | 0.42 | 0.14 | 95 | 1005.6 |
| 20260506112604 | 50 | 134 | 0.9 | 4.3 | 0.06 | 0.41 | 0.13 | 95 | 1005.6 |
| 20260506112104 | 50 | 134 | 2.6 | 4.3 | 0.06 | 0.41 | 0.13 | 95 | 1005.6 |
| 20260506111605 | 50 | 134 | 2.6 | 4.3 | 0.07 | 0.41 | 0.13 | 95 | 1005.6 |
| 20260506111104 | 50 | 134 | 0.9 | 2.6 | 0.06 | 0.40 | 0.12 | 95 | 1005.6 |
| 20260506110604 | 50 | 134 | 0.9 | 1.7 | 0.07 | 0.40 | 0.12 | 95 | 1005.6 |
| 20260506110104 | 50 | 134 | 0.0 | 1.7 | 0.08 | 0.40 | 0.12 | 95 | 1005.6 |
| 20260506105605 | 50 | 134 | 0.9 | 1.7 | 0.07 | 0.39 | 0.11 | 95 | 1005.6 |
| 20260506105105 | 50 | 134 | 0.0 | 1.7 | 0.06 | 0.38 | 0.10 | 95 | 1005.6 |
| 20260506104605 | 49 | 134 | 0.0 | 0.9 | 0.06 | 0.37 | 0.09 | 95 | 1005.6 |
| 20260506104104 | 49 | 134 | 0.0 | 0.9 | 0.06 | 0.36 | 0.08 | 95 | 1005.6 |
| 20260506103604 | 49 | 134 | 0.0 | 0.9 | 0.05 | 0.35 | 0.07 | 94 | 1005.6 |
| 20260506103105 | 49 | 134 | 0.0 | 0.0 | 0.05 | 0.35 | 0.07 | 94 | 1005.7 |
| 20260506102604 | 49 | 134 | 0.0 | 0.0 | 0.05 | 0.35 | 0.07 | 94 | 1005.7 |
| 20260506102104 | 49 | 134 | 0.0 | 0.0 | 0.05 | 0.35 | 0.07 | 94 | 1005.7 |
| 20260506101605 | 49 | 134 | 0.0 | 0.0 | 0.04 | 0.34 | 0.06 | 94 | 1005.7 |
| 20260506101105 | 49 | 134 | 0.0 | 0.0 | 0.04 | 0.34 | 0.06 | 94 | 1005.7 |
| 20260506095604 | 49 | 134 | 0.0 | 0.0 | 0.03 | 0.32 | 0.04 | 94 | 1005.7 |
| 20260506095104 | 49 | 134 | 0.0 | 0.0 | 0.03 | 0.32 | 0.04 | 94 | 1005.7 |
| 20260506094105 | 49 | 134 | 0.0 | 0.0 | 0.02 | 0.30 | 0.02 | 94 | 1005.7 |
| 20260506093604 | 49 | 134 | 0.0 | 0.0 | 0.02 | 0.30 | 0.02 | 94 | 1005.7 |
| 20260506092104 | 49 | 134 | 0.0 | 0.0 | 0.02 | 0.30 | 0.02 | 94 | 1008.1 |